www.pogodaiklimat.ru

Погода и климат >> Архив погоды >> Иран >> Iranshahr


ПОГОДА в Iranshahr

  • Прогноз погоды в Iranshahr
  • Монитор погоды в Iranshahr
  • Климат города

АРХИВ ПОГОДЫ в Iranshahr

Время (UTC), дата Ветер
(напр.,м/с)
 
Видим.   Явления Облачность Т
(С)
Тd
(С)
f
(%)
Тe
(С)
Тes
(С)
Комфортность P
(гПа)
Po
(гПа)
Тmin
(С)
Tmax
(С)
R
(мм)
R24
(мм)
S
(см)
12 11.12 З 4 20 км ясно +20.1 -14.5 8 +19 +20 1017.8 948.9
15 11.12 З 2 12 км ясно +14.4 -12.9 14 +14 +14 1019.4 949.6 +20.4
18 11.12 С 3 12 км ясно +9.8 -16.8 14 +9 +9 1018.7 949.7
21 11.12 С 4 12 км ясно +8.5 -16.9 15 +6 +6 1017.1 948.4
00 12.12 С 4 12 км ясно +6.1 -16.4 18 +3 +3 1016.1 947.5
03 12.12 С 4 15 км 3/0
[Ac trans]
+7.4 -15.4 18 +5 +5 1017.2 948.0 +5.5
06 12.12 штиль 0 20 км 1/0
[Ac As]
+16.7 -14.0 11 +17 +25 1019.1 950.3
09 12.12 ЮЗ 5 20 км ясно +19.8 -13.1 10 +19 +23 1016.2 947.8
12 12.12 Ю 3 20 км ясно +21.3 -13.5 9 +20 +21 1015.9 947.4
15 12.12 С 8 10 км ясно +16.1 -15.6 10 +15 +15 1018.8 949.7 +21.9
18 12.12 СВ 5 10 км ясно +13.3 -14.4 13 +12 +12 1019.9 951.5
21 12.12 С 3 10 км ясно +9.7 -15.5 15 +8 +8 1020.2 951.4
00 13.12 СВ 2 10 км ясно +4.6 -16.6 20 +3 +3 1020.8 951.8
03 13.12 СВ 3 15 км ясно +3.6 -15.1 24 +1 +1 1022.8 953.0 +3.4
06 13.12 штиль 0 15 км ясно +13.8 -12.8 15 +14 +22 1022.6 953.7
09 13.12 ЮЗ 3 20 км ясно +17.0 -12.1 13 +17 +24 1019.9 951.1
12 13.12 З 7 20 км ясно +18.3 -12.7 11 +18 +18 1018.9 949.7
15 13.12 ЮЗ 4 12 км ясно +13.9 -11.7 16 +13 +13 1020.6 950.7 +19.5
18 13.12 штиль 0 10 км ясно +8.4 -14.8 18 +9 +9 1020.8 951.4
21 13.12 С 3 10 км ясно +6.6 -14.1 21 +5 +5 1020.1 951.1
00 14.12 С 3 10 км ясно +5.8 -14.3 22 +4 +4 1020.0 950.9
03 14.12 С 2 15 км ясно +4.1 -15.1 23 +2 +2 1022.1 952.1 +3.5
06 14.12 штиль 0 20 км ясно +15.5 -12.3 14 +16 +24 1023.0 953.7
09 14.12 ЮЗ 2 20 км ясно +18.6 -13.2 10 +19 +27 1021.1 952.0
12 14.12 ЮЗ 2 20 км ясно +20.5 -12.8 9 +20 +21 1018.8 950.0
15 14.12 штиль 0 15 км ясно +15.0 -11.7 15 +15 +15 1020.5 950.8 +20.8
18 14.12 СВ 2 12 км ясно +9.8 -16.0 15 +9 +9 1020.5 951.5
21 14.12 С 4 12 км ясно +8.7 -16.3 15 +7 +7 1020.0 950.9
00 15.12 С 2 12 км ясно +6.7 -15.3 19 +6 +6 1020.0 951.2
03 15.12 С 4 15 км ясно +6.1 -16.5 18 +3 +3 1021.7 952.1 +5.5
06 15.12 СВ 3 20 км 3/0
[Ci sp]
+16.3 -13.2 12 +16 +21 1022.4 953.4
09 15.12 З 3 20 км 9/0
[Cs]
+21.0 -14.2 8 +20 +26 1020.1 951.6
12 15.12 З 4 20 км 8/0
[Cs]
+22.1 -13.6 8 +20 +21 1019.2 950.7
15 15.12 С 2 12 км 6/0
[Cs]
+16.6 -12.9 12 +17 +17 1021.5 952.1 +22.5
18 15.12 СВ 2 12 км 5/0
[Cs]
+12.3 -13.2 16 +12 +12 1021.5 952.8
21 15.12 С 3 12 км 6/0
[Cs]
+10.6 -12.0 19 +9 +9 1021.0 952.7
00 16.12 СВ 3 12 км 6/0
[Cs]
+9.6 -11.4 21 +8 +8 1020.1 951.9
03 16.12 СВ 3 12 км 6/0
[Cs]
+7.8 -11.6 24 +6 +6 1022.5 953.3 +7.6
06 16.12 С 2 20 км 8/0
[Ac As Cs]
+15.0 -11.8 15 +15 +19 1024.1 955.1
09 16.12 штиль 0 20 км 8/0
[Ac As Cs]
+20.8 -11.7 10 +20 +27 1020.9 952.6
12 16.12 штиль 0 20 км 8/1 1200 м
[Sc diur, vesp Ac As Ci sp]
+22.3 -12.0 9 +20 +21 1020.0 951.8
15 16.12 штиль 0 12 км 9/0
[Ac As Cs]
+17.8 -10.9 13 +18 +18 1022.1 953.0 +23.6
18 16.12 СВ 2 10 км 9/0
[Ac As]
+15.7 -10.2 16 +16 +16 1021.9 953.4
21 16.12 С 3 10 км 5/0
[Ac As Ci sp]
+14.1 -10.4 17 +14 +14 1020.3 952.4
00 17.12 СЗ 2 12 км 6/0
[Ac As Cs]
+14.2 -8.4 20 +14 +14 1019.9 952.2
03 17.12 СВ 2 15 км 9/3 1200 м
[Sc Ac As]
+13.7 -7.5 22 +14 +14 1022.0 953.6 +13.6
06 17.12 ЮЗ 3 15 км 8/1 1200 м
[Sc Ac trans]
+18.3 -1.1 27 +19 +21 1023.4 955.3
09 17.12 З 4 15 км 9/1 1200 м
[Cu hum Ac As]
+20.1 -2.1 22 +20 +22 1020.3 952.4
12 17.12 З 3 15 км 8/0
[Ac As]
+20.9 0.0 25 +21 +22 комфорт 1018.0 950.4
15 17.12 ЮЗ 2 12 км 6/0
[Ac As]
+16.9 +3.4 41 +17 +17 1020.1 951.9 +21.4
18 17.12 СВ 2 10 км 1/0
[Ac trans]
+13.0 +0.8 43 +13 +13 1020.9 952.7
21 17.12 С 3 10 км 4/0
[Ac trans Cs]
+11.5 -0.2 44 +10 +10 1020.8 952.6
00 18.12 СВ 2 12 км 9/0
[Ac As Ci sp]
+11.8 +0.6 46 +11 +11 1020.8 952.7
03 18.12 С 2 15 км 10/0
[As op]
+12.5 +0.7 44 +12 +12 1022.0 953.5 +11.2
06 18.12 СВ 2 15 км 9/0
[Ac As]
+18.0 +2.8 36 +19 +21 1023.2 954.8
09 18.12 СЗ 2 12 км 9/0
[Ac As]
+21.0 +2.6 30 +22 +25 комфорт 1020.3 952.3

 

Местоположение метеостанции Iranshahr (Иран): широта 27.20 долгота 60.70 высота над уровнем моря 591 м.

В архиве по умолчанию представлена погода в Iranshahr за последнюю неделю. Архивные данные за месяц целиком и за предыдущие месяцы, начиная с января 2011 года, Вы можете получить, выбрав интересующий диапазон дат из раскрывающегося списка и нажав кнопку "Ввод!".

Внимание! Время в таблицах - всемирное. Для получения местного времени необходимо прибавить поправку, которая в Iranshahr равна 3.5 ч.

Смотрите также архив погоды в соседних городах и на ближайших метеорологических станциях:

Погода в Saravan (Иран) (162 км)
Погода в Chah Bahar Airport (Иран) (214 км)
Погода в Zahedan (Иран) (253 км)
Погода в Jiwani (Пакистан) (261 км)
Погода в Nokkundi (Пакистан) (270 км)
Погода в Gawadar (Пакистан) (282 км)
Погода в Kahnuj (Иран) (308 км)
Погода в Bam (Иран) (309 км)
Погода в Panjgur (Пакистан) (338 км)
Погода в Jask (Иран) (340 км)

Пояснения к столбцам:

Ветер - указаны скорость ветра в м/с - средняя за 10 мин, порывы в срок и между сроками (в фигурных скобках) и направление, откуда дует ветер: С - северный, СВ - северо-восточный, В - восточный, ЮВ - юго-восточный, Ю - южный, ЮЗ - юго-западный, З - западный, СЗ - северо-западный.
Видимость - горизонтальная дальность видимости в метрах или километрах. При видимости от 1 до 10 км при отсутствии осадков обычно наблюдается дымка, при ухудшении видимости до 1 км и менее - туман. В сухую погоду видимость может ухудшаться дымом, пылью или мглою.
Явления - указаны атмосферные явления, наблюдавшиеся в срок или в последний час перед сроком; фигурными скобками обозначены явления, наблюдавшиеся между сроками (за 1-3 часа до срока); квадратными скобками обозначены град или гололедные отложения с указанием их диаметра в мм.
Облачность - указаны через наклонную черту общая и нижняя облачность в баллах и высота нижней границы облаков в метрах; квадратными скобками обозначены формы облаков: Ci - перистые, Cs - перисто-слоистые, Cc - перисто-кучевые, Ac - высококучевые, As - высокослоистые, Sc - слоисто-кучевые, Ns - слоисто-дождевые, Cu - кучевые, Cb - кучево-дождевые. Подробнее классификацию облаков см. в Атласе облаков (PDF).
T - Температура воздуха - температура, измеренная на высоте 2 м над землей.
Td - Температура точки росы - температура, при понижении до которой содержащийся в воздухе водяной пар достигнет насыщения.
f - Относительная влажность воздуха - влажноcть воздуха, измеренная на высоте 2 м над землей.
Te - Эффективная температура - температура, которую ощущает одетый по сезону человек в тени. Характеристика душности погоды. При расчете учитывается влияние влажности воздуха и скорости ветра на теплоощущения человека.
Tes - Эффективная температура на солнце - температура, которую ощущает человек, с поправкой на солнечный нагрев. Характеристика знойности погоды. Зависит от высоты солнца над горизонтом, облачности и скорости ветра. Ночью, в пасмурную погоду, а также при ветре 12 м/с и более поправка равна нулю.
P - Атмосферное давление - приведенное к уровню моря атмосферное давление.
Po - Атмосферное давление - измеренное на уровне метеостанции атмосферное давление.
Tmin - Минимальная температура - минимум температуры воздуха на высоте 2 м над землей.
Tmax - Максимальная температура - максимум температуры воздуха на высоте 2 м над землей.
R - Количество осадков - Количество выпавших осадков за период времени, мм. При наведении курсора мыши на число - период времени, за который выпало указанное количество осадков.
R24 - Количество осадков - Количество выпавших осадков за 24 часа, мм.
S - Снежный покров - Высота снежного покрова, см. При наведении курсора мыши на число - состояние снежного покрова и степень покрытия местности в баллах.